DLH438 KSEA-EDDF

Flight info

Callsign DLH438
Flight time N/A
Altitude 34000
Route ALPSE DCT YDC DCT PARQE DCT YQU/N0471F350 DCT 59N115W 62N110W/N0473F370 65N100W 67N090W 6830N08000W 6930N07000W/M082F370 DCT ADSAM DCT 70N060W 70N050W 6930N04000W/M081F390 6830N03000W 6630N02000W 64N010W DCT GUNPA/N0465F390 DCT ATNAK DCT OMIMA DCT KUBAT/N0464F400 DCT EEL DCT SOGPO/N0464F410 DCT DIXAT DIXAT1D
Aircraft A343/H-SDE2E3FGHIJ4J5M1RWXY/LB1D1

Departure

Time 2026-05-01 11:45
Airport Seattle–Tacoma International Airport (KSEA)

Arrival

Time N/A
Airport Frankfurt Main Airport (EDDF)
Time Latitude Longitude Altitude Speed Heading
2026-05-01 11:05 47.43973 -122.30187 394 ft 0 kts 176°
2026-05-01 11:34 47.43987 -122.30187 391 ft 4 kts 175°
2026-05-01 11:34 47.44003 -122.30198 394 ft 4 kts 145°
2026-05-01 11:35 47.44024 -122.30221 394 ft 4 kts 153°
2026-05-01 11:35 47.44039 -122.30229 393 ft 2 kts 234°
2026-05-01 11:35 47.44043 -122.30222 393 ft 0 kts 236°
2026-05-01 11:40 47.44032 -122.30245 396 ft 6 kts 236°
2026-05-01 11:40 47.44007 -122.30301 394 ft 7 kts 239°
2026-05-01 11:40 47.43993 -122.30384 394 ft 10 kts 266°
2026-05-01 11:40 47.43991 -122.30484 393 ft 10 kts 270°
2026-05-01 11:41 47.43989 -122.30581 394 ft 10 kts 260°
2026-05-01 11:41 47.43939 -122.30632 394 ft 9 kts 189°
2026-05-01 11:41 47.43849 -122.30637 397 ft 15 kts 181°
2026-05-01 11:41 47.43748 -122.30638 392 ft 15 kts 180°
2026-05-01 11:42 47.43647 -122.30629 393 ft 14 kts 166°
2026-05-01 11:42 47.43557 -122.30568 397 ft 14 kts 161°
2026-05-01 11:42 47.43461 -122.30559 395 ft 14 kts 180°
2026-05-01 11:42 47.43364 -122.30560 394 ft 14 kts 180°
2026-05-01 11:43 47.43267 -122.30563 394 ft 14 kts 187°
2026-05-01 11:43 47.43188 -122.30635 396 ft 13 kts 232°
2026-05-01 11:43 47.43181 -122.30761 397 ft 12 kts 291°
2026-05-01 11:44 47.43244 -122.30806 395 ft 7 kts 358°
2026-05-01 11:44 47.43463 -122.30807 395 ft 56 kts
2026-05-01 11:44 47.44005 -122.30799 394 ft 99 kts
2026-05-01 11:44 47.44822 -122.30792 393 ft 135 kts
2026-05-01 11:45 47.45851 -122.30786 409 ft 163 kts 360°
2026-05-01 11:45 47.46961 -122.30790 856 ft 157 kts 357°
2026-05-01 11:45 47.48065 -122.30885 1177 ft 161 kts 356°
2026-05-01 11:45 47.49193 -122.31071 1461 ft 166 kts 352°
2026-05-01 11:46 47.50378 -122.31352 1657 ft 181 kts 351°
2026-05-01 11:46 47.51688 -122.31673 1903 ft 199 kts 351°
2026-05-01 11:46 47.53116 -122.32006 2195 ft 215 kts 352°
2026-05-01 11:46 47.54679 -122.32272 2497 ft 236 kts 356°
2026-05-01 11:47 47.56379 -122.32441 2923 ft 251 kts 357°
2026-05-01 11:47 47.58154 -122.32461 3493 ft 260 kts
2026-05-01 11:47 47.59956 -122.32032 4155 ft 265 kts 12°
2026-05-01 11:47 47.61769 -122.31423 4860 ft 269 kts 14°
2026-05-01 11:48 47.63592 -122.30703 5528 ft 273 kts 16°
2026-05-01 11:48 47.65413 -122.29932 6196 ft 278 kts 17°
2026-05-01 11:48 47.67306 -122.29112 6865 ft 282 kts 16°
2026-05-01 11:48 47.69171 -122.28306 7548 ft 284 kts 16°
2026-05-01 11:49 47.71102 -122.27482 8211 ft 287 kts 15°
2026-05-01 11:49 47.73012 -122.26675 8854 ft 290 kts 15°
2026-05-01 11:49 47.74968 -122.25856 9507 ft 293 kts 15°
2026-05-01 11:49 47.76943 -122.25032 10130 ft 297 kts 14°
2026-05-01 11:50 47.78975 -122.24187 10461 ft 311 kts 14°
2026-05-01 11:50 47.81106 -122.23300 10700 ft 325 kts 14°
2026-05-01 11:50 47.83335 -122.22373 10947 ft 340 kts 15°
2026-05-01 11:50 47.85666 -122.21401 11194 ft 354 kts 15°
2026-05-01 11:51 47.88085 -122.20388 11434 ft 368 kts 15°
2026-05-01 11:51 47.90594 -122.19336 11685 ft 380 kts 15°
2026-05-01 11:51 47.93169 -122.18255 12091 ft 387 kts 15°
2026-05-01 11:51 47.95786 -122.17155 12589 ft 392 kts 15°
2026-05-01 11:52 47.98392 -122.16059 13152 ft 395 kts 15°
2026-05-01 11:52 48.01046 -122.14941 13712 ft 398 kts 14°
2026-05-01 11:52 48.03730 -122.13810 14194 ft 403 kts 14°
2026-05-01 11:52 48.06444 -122.12665 14675 ft 407 kts 14°
2026-05-01 11:53 48.09184 -122.11508 15153 ft 410 kts 14°
2026-05-01 11:53 48.11942 -122.10341 15626 ft 414 kts 14°
2026-05-01 11:53 48.14687 -122.08922 16095 ft 419 kts 22°
2026-05-01 11:53 48.17278 -122.06877 16580 ft 423 kts 33°
2026-05-01 11:54 48.19679 -122.04291 17068 ft 427 kts 38°
2026-05-01 11:54 48.21968 -122.01430 17539 ft 430 kts 41°
2026-05-01 11:54 48.24196 -121.98409 18017 ft 434 kts 43°
2026-05-01 11:54 48.26414 -121.95298 18447 ft 438 kts 43°
2026-05-01 11:55 48.28640 -121.92155 18879 ft 441 kts 43°
2026-05-01 11:55 48.30886 -121.89001 19333 ft 443 kts 43°
2026-05-01 11:55 48.33150 -121.85846 19776 ft 445 kts 42°
2026-05-01 11:55 48.35406 -121.82724 20215 ft 448 kts 42°
2026-05-01 11:56 48.37711 -121.79546 20641 ft 450 kts 42°
2026-05-01 11:56 48.40025 -121.76361 21061 ft 452 kts 42°
2026-05-01 11:56 48.42355 -121.73153 21451 ft 455 kts 42°
2026-05-01 11:56 48.44696 -121.69926 21913 ft 456 kts 42°
2026-05-01 11:57 48.47041 -121.66687 22317 ft 458 kts 42°
2026-05-01 11:57 48.49395 -121.63429 22711 ft 461 kts 42°
2026-05-01 11:57 48.51764 -121.60147 23048 ft 465 kts 42°
2026-05-01 11:57 48.54159 -121.56823 23382 ft 468 kts 42°
2026-05-01 11:58 48.56558 -121.53487 23757 ft 470 kts 42°
2026-05-01 11:58 48.58968 -121.50133 24048 ft 472 kts 42°
2026-05-01 11:58 48.63782 -121.43418 24658 ft 476 kts 42°
2026-05-01 11:59 48.66222 -121.40008 24987 ft 478 kts 42°
2026-05-01 11:59 48.68668 -121.36586 25285 ft 480 kts 42°
2026-05-01 11:59 48.71126 -121.33142 25573 ft 482 kts 42°
2026-05-01 12:00 48.76055 -121.26220 26129 ft 485 kts 42°
2026-05-01 12:00 48.78537 -121.22728 26395 ft 487 kts 42°
2026-05-01 12:00 48.83528 -121.15689 26947 ft 491 kts 42°
2026-05-01 12:01 48.86032 -121.12151 27212 ft 492 kts 42°
2026-05-01 12:01 48.88543 -121.08597 27469 ft 494 kts 42°
2026-05-01 12:01 48.91061 -121.05027 27735 ft 496 kts 42°
2026-05-01 12:01 48.93553 -121.01491 27964 ft 498 kts 42°
2026-05-01 12:02 48.96094 -120.97880 28171 ft 500 kts 42°
2026-05-01 12:02 48.98644 -120.94249 28415 ft 502 kts 42°
2026-05-01 12:02 49.01205 -120.90598 28650 ft 503 kts 42°
2026-05-01 12:02 49.03763 -120.86946 28878 ft 505 kts 42°
2026-05-01 12:03 49.06331 -120.83274 29186 ft 505 kts 42°
2026-05-01 12:03 49.08881 -120.79622 29529 ft 503 kts 42°
2026-05-01 12:03 49.11434 -120.75960 29867 ft 503 kts 42°
2026-05-01 12:03 49.13978 -120.72306 30171 ft 502 kts 42°
2026-05-01 12:04 49.16524 -120.68644 30442 ft 501 kts 42°
2026-05-01 12:04 49.19029 -120.65036 30715 ft 500 kts 42°
2026-05-01 12:04 49.21559 -120.61385 31037 ft 498 kts 42°
2026-05-01 12:04 49.24069 -120.57758 31354 ft 496 kts 42°
2026-05-01 12:05 49.26579 -120.54127 31610 ft 495 kts 41°
2026-05-01 12:05 49.31580 -120.46875 32122 ft 494 kts 41°
2026-05-01 12:05 49.34130 -120.43356 32345 ft 492 kts 36°
2026-05-01 12:06 49.36924 -120.40366 32592 ft 488 kts 28°
2026-05-01 12:06 49.39956 -120.38071 32828 ft 484 kts 18°
2026-05-01 12:06 49.43166 -120.36565 33056 ft 479 kts
2026-05-01 12:06 49.46439 -120.35691 33314 ft 476 kts
2026-05-01 12:07 49.49718 -120.34996 33544 ft 475 kts
2026-05-01 12:07 49.52994 -120.34388 33767 ft 473 kts
2026-05-01 12:07 49.56221 -120.33821 33985 ft 472 kts
2026-05-01 12:07 49.59492 -120.33249 34184 ft 472 kts
2026-05-01 12:08 49.62746 -120.32669 34357 ft 471 kts
2026-05-01 12:08 49.66003 -120.32077 34529 ft 471 kts
2026-05-01 12:08 49.69261 -120.31474 34706 ft 470 kts
2026-05-01 12:08 49.72511 -120.30865 34861 ft 470 kts
2026-05-01 12:09 49.75751 -120.30254 35020 ft 470 kts
2026-05-01 12:09 49.79001 -120.29640 35103 ft 471 kts
2026-05-01 12:09 49.85553 -120.28401 35111 ft 475 kts
2026-05-01 12:10 49.95324 -120.26543 35113 ft 472 kts
2026-05-01 12:11 50.05117 -120.24678 35111 ft 472 kts
2026-05-01 12:11 50.11645 -120.23430 35110 ft 472 kts
2026-05-01 12:12 50.18175 -120.22178 35111 ft 472 kts
2026-05-01 12:12 50.24697 -120.20926 35105 ft 472 kts
2026-05-01 12:13 50.31223 -120.19668 35108 ft 472 kts
2026-05-01 12:13 50.37706 -120.18414 35107 ft 472 kts
2026-05-01 12:14 50.44248 -120.17146 35102 ft 472 kts
2026-05-01 12:14 50.50769 -120.15878 35103 ft 473 kts
2026-05-01 12:15 50.57311 -120.14605 35098 ft 474 kts
2026-05-01 12:15 50.63859 -120.13325 35108 ft 475 kts
2026-05-01 12:16 50.70386 -120.12045 35110 ft 475 kts
2026-05-01 12:16 50.76945 -120.10756 35113 ft 475 kts
2026-05-01 12:17 50.83518 -120.09461 35104 ft 476 kts
2026-05-01 12:17 50.90091 -120.08162 35098 ft 476 kts
2026-05-01 12:18 50.96677 -120.06855 35094 ft 477 kts
2026-05-01 12:18 51.03269 -120.05546 35095 ft 477 kts
2026-05-01 12:19 51.09828 -120.04239 35101 ft 478 kts
2026-05-01 12:19 51.16447 -120.02916 35098 ft 478 kts
2026-05-01 12:20 51.23060 -120.01588 35096 ft 478 kts
2026-05-01 12:20 51.29663 -120.00260 35096 ft 478 kts
2026-05-01 12:21 51.36278 -119.98928 35099 ft 480 kts
2026-05-01 12:21 51.42921 -119.97585 35104 ft 482 kts
2026-05-01 12:22 51.48447 -119.96462 35099 ft 482 kts
2026-05-01 12:22 51.56180 -119.94888 35114 ft 482 kts
2026-05-01 12:23 51.61753 -119.93751 35123 ft 482 kts
2026-05-01 12:23 51.68405 -119.92390 35111 ft 482 kts
2026-05-01 12:24 51.75009 -119.91035 35108 ft 482 kts
2026-05-01 12:24 51.81664 -119.89666 35110 ft 482 kts
2026-05-01 12:25 51.91645 -119.87605 35128 ft 482 kts
2026-05-01 12:26 51.98299 -119.86225 35109 ft 482 kts
2026-05-01 12:26 52.08276 -119.84149 35116 ft 482 kts
2026-05-01 12:27 52.18255 -119.82062 35116 ft 482 kts
2026-05-01 12:28 52.28190 -119.79986 35121 ft 482 kts
2026-05-01 12:29 52.38158 -119.77879 35113 ft 482 kts
2026-05-01 12:29 52.48146 -119.75763 35122 ft 482 kts
2026-05-01 12:30 52.58133 -119.73635 35110 ft 483 kts
2026-05-01 12:31 52.64799 -119.72209 35117 ft 483 kts
2026-05-01 12:31 52.71472 -119.70778 35117 ft 483 kts
2026-05-01 12:32 52.78100 -119.69352 35140 ft 483 kts
2026-05-01 12:32 52.88117 -119.67189 35126 ft 484 kts
2026-05-01 12:33 52.94796 -119.65743 35126 ft 484 kts
2026-05-01 12:33 53.01478 -119.64290 35129 ft 484 kts
2026-05-01 12:34 53.08170 -119.62832 35151 ft 485 kts
2026-05-01 12:34 53.14867 -119.61367 35128 ft 485 kts
2026-05-01 12:35 53.21569 -119.59895 35132 ft 485 kts
2026-05-01 12:35 53.28266 -119.58421 35133 ft 485 kts
2026-05-01 12:36 53.34922 -119.56952 35130 ft 485 kts
2026-05-01 12:36 53.41632 -119.55467 35135 ft 486 kts
2026-05-01 12:37 53.48351 -119.53974 35124 ft 487 kts
2026-05-01 12:37 53.55076 -119.52474 35121 ft 487 kts
2026-05-01 12:38 53.61813 -119.50967 35126 ft 487 kts
2026-05-01 12:38 53.68542 -119.49459 35135 ft 487 kts
2026-05-01 12:39 53.75259 -119.47893 35126 ft 489 kts
2026-05-01 12:39 53.81969 -119.45849 35135 ft 490 kts
2026-05-01 12:40 53.88652 -119.43690 35126 ft 493 kts
2026-05-01 12:40 53.95408 -119.41565 35123 ft 494 kts
2026-05-01 12:41 54.02160 -119.39483 35139 ft 494 kts
2026-05-01 12:41 54.08925 -119.37404 35134 ft 494 kts
2026-05-01 12:42 54.15688 -119.35318 35144 ft 494 kts
2026-05-01 12:42 54.22460 -119.33219 35136 ft 493 kts
2026-05-01 12:43 54.29202 -119.31121 35146 ft 492 kts
2026-05-01 12:43 54.35892 -119.29033 35137 ft 491 kts
2026-05-01 12:44 54.42622 -119.26927 35139 ft 491 kts
2026-05-01 12:45 54.56014 -119.22715 35129 ft 491 kts
2026-05-01 12:45 54.62731 -119.20590 35141 ft 491 kts
2026-05-01 12:46 54.69462 -119.18456 35118 ft 492 kts
2026-05-01 12:46 54.76197 -119.16311 35119 ft 492 kts
2026-05-01 12:47 54.82942 -119.14156 35105 ft 492 kts
2026-05-01 12:47 54.89680 -119.11996 35105 ft 492 kts
2026-05-01 12:48 54.96373 -119.09843 35092 ft 492 kts
2026-05-01 12:48 55.03120 -119.07666 35089 ft 493 kts
2026-05-01 12:49 55.09862 -119.05484 35063 ft 493 kts
2026-05-01 12:49 55.16586 -119.02938 35064 ft 499 kts 13°
2026-05-01 12:50 55.22960 -118.97906 35065 ft 505 kts 22°
2026-05-01 12:50 55.29189 -118.92123 35069 ft 507 kts 24°
2026-05-01 12:51 55.35386 -118.86203 35069 ft 507 kts 24°
2026-05-01 12:52 55.44641 -118.77377 35063 ft 506 kts 24°
2026-05-01 12:52 55.53939 -118.68518 35062 ft 506 kts 24°
2026-05-01 12:53 55.63233 -118.59619 35049 ft 506 kts 24°
2026-05-01 12:54 55.69427 -118.53659 35057 ft 506 kts 24°
2026-05-01 12:54 55.78702 -118.44694 35048 ft 506 kts 24°
2026-05-01 12:55 55.87934 -118.35723 35044 ft 506 kts 24°
2026-05-01 12:56 55.94117 -118.29685 35046 ft 506 kts 24°
2026-05-01 12:56 56.00293 -118.23634 35041 ft 506 kts 24°
2026-05-01 12:57 56.06481 -118.17547 35063 ft 506 kts 24°
2026-05-01 12:57 56.15684 -118.08454 35037 ft 505 kts 24°
2026-05-01 12:58 56.21838 -118.02347 35023 ft 505 kts 24°
2026-05-01 12:59 56.31069 -117.93141 35032 ft 505 kts 24°
2026-05-01 12:59 56.40287 -117.83897 35023 ft 505 kts 24°
2026-05-01 13:00 56.49485 -117.74622 35030 ft 503 kts 25°
2026-05-01 13:01 56.58606 -117.65371 35022 ft 502 kts 25°
2026-05-01 13:02 56.67743 -117.56055 35023 ft 502 kts 25°
2026-05-01 13:07 57.34186 -116.86686 35004 ft 495 kts 26°
2026-05-01 13:08 57.40151 -116.80317 35003 ft 495 kts 26°
2026-05-01 13:08 57.45105 -116.75009 34996 ft 495 kts 26°
2026-05-01 13:09 57.51063 -116.68602 35003 ft 495 kts 26°
2026-05-01 13:09 57.57993 -116.61120 35002 ft 495 kts 26°
2026-05-01 13:10 57.62985 -116.55708 35001 ft 495 kts 27°
2026-05-01 13:10 57.68933 -116.49237 35000 ft 493 kts 27°
2026-05-01 13:11 57.74836 -116.42789 35000 ft 491 kts 27°
2026-05-01 13:11 57.80696 -116.36366 34995 ft 491 kts 27°
2026-05-01 13:12 57.86595 -116.29877 34989 ft 491 kts 27°
2026-05-01 13:12 57.92496 -116.23359 34978 ft 491 kts 27°
2026-05-01 13:13 57.98386 -116.16828 34985 ft 491 kts 27°
2026-05-01 13:13 58.04274 -116.10273 34977 ft 491 kts 27°
2026-05-01 13:14 58.10120 -116.03741 34981 ft 490 kts 27°
2026-05-01 13:14 58.15983 -115.97164 34971 ft 490 kts 27°
2026-05-01 13:15 58.21859 -115.90548 34972 ft 490 kts 27°
2026-05-01 13:15 58.27736 -115.83905 34971 ft 490 kts 27°
2026-05-01 13:16 58.33567 -115.77287 34968 ft 490 kts 27°
2026-05-01 13:16 58.39427 -115.70609 34968 ft 490 kts 27°
2026-05-01 13:17 58.51148 -115.57177 34969 ft 490 kts 27°
2026-05-01 13:18 58.59917 -115.47056 34969 ft 490 kts 27°
2026-05-01 13:18 58.65753 -115.40289 34965 ft 490 kts 28°
2026-05-01 13:19 58.71589 -115.33494 34963 ft 490 kts 28°
2026-05-01 13:20 58.80301 -115.23300 34970 ft 490 kts 28°
2026-05-01 13:20 58.86123 -115.16455 34968 ft 490 kts 28°
2026-05-01 13:21 58.94853 -115.06137 34967 ft 489 kts 28°
2026-05-01 13:21 59.00554 -114.99055 34982 ft 491 kts 33°
2026-05-01 13:22 59.06044 -114.91136 34969 ft 492 kts 34°
2026-05-01 13:22 59.11497 -114.83044 34968 ft 492 kts 34°
2026-05-01 13:23 59.16927 -114.74921 34961 ft 492 kts 34°
2026-05-01 13:23 59.22358 -114.66778 34967 ft 492 kts 34°
2026-05-01 13:24 59.27787 -114.58615 34955 ft 492 kts 34°
2026-05-01 13:25 59.35891 -114.46374 34949 ft 493 kts 34°
2026-05-01 13:25 59.41314 -114.38139 34951 ft 493 kts 34°
2026-05-01 13:26 59.46729 -114.29882 34952 ft 493 kts 34°
2026-05-01 13:26 59.52145 -114.21589 34946 ft 493 kts 34°
2026-05-01 13:27 59.57571 -114.13247 34952 ft 493 kts 34°
2026-05-01 13:27 59.65651 -114.00757 34944 ft 494 kts 34°
2026-05-01 13:28 59.73766 -113.88133 34937 ft 494 kts 35°
2026-05-01 13:29 59.84528 -113.71266 34920 ft 492 kts 34°
2026-05-01 13:31 60.00616 -113.45788 34912 ft 494 kts 35°
2026-05-01 13:32 60.14029 -113.24292 34896 ft 494 kts 35°
2026-05-01 13:33 60.27426 -113.02593 34870 ft 494 kts 35°
2026-05-01 13:34 60.38079 -112.85166 34859 ft 494 kts 35°
2026-05-01 13:35 60.46084 -112.71974 34859 ft 495 kts 35°
2026-05-01 13:36 60.54092 -112.58687 34852 ft 495 kts 35°
2026-05-01 13:36 60.62075 -112.45354 34840 ft 495 kts 36°
2026-05-01 13:37 60.67402 -112.36409 34847 ft 496 kts 36°
2026-05-01 13:37 60.72712 -112.27454 34834 ft 498 kts 36°
2026-05-01 13:38 60.80705 -112.13895 34828 ft 498 kts 36°
2026-05-01 13:39 60.86026 -112.04817 34833 ft 498 kts 36°
2026-05-01 13:39 60.91345 -111.95704 34833 ft 498 kts 36°
2026-05-01 13:40 60.96659 -111.86558 34827 ft 498 kts 36°
2026-05-01 13:40 61.01965 -111.77385 34830 ft 497 kts 36°
2026-05-01 13:41 61.07228 -111.68244 34820 ft 497 kts 36°
2026-05-01 13:41 61.12518 -111.59016 34821 ft 497 kts 36°
2026-05-01 13:42 61.17806 -111.49749 34814 ft 498 kts 36°
2026-05-01 13:42 61.23083 -111.40461 34818 ft 498 kts 36°
2026-05-01 13:43 61.28362 -111.31124 34810 ft 497 kts 37°
2026-05-01 13:43 61.33632 -111.21761 34809 ft 497 kts 37°
2026-05-01 13:44 61.38853 -111.12444 34809 ft 497 kts 37°
2026-05-01 13:44 61.44109 -111.03020 34810 ft 498 kts 37°
2026-05-01 13:45 61.49357 -110.93567 34801 ft 498 kts 37°
2026-05-01 13:45 61.54600 -110.84079 34822 ft 498 kts 37°
2026-05-01 13:46 61.59844 -110.74547 34800 ft 499 kts 37°
2026-05-01 13:46 61.65081 -110.64981 34798 ft 499 kts 37°
2026-05-01 13:47 61.70285 -110.55432 34788 ft 499 kts 37°
2026-05-01 13:47 61.75515 -110.45791 34799 ft 499 kts 37°
2026-05-01 13:48 61.80741 -110.36112 34811 ft 499 kts 38°
2026-05-01 13:48 61.85949 -110.26419 34795 ft 498 kts 38°
2026-05-01 13:49 61.91150 -110.16693 34797 ft 498 kts 38°
2026-05-01 13:49 61.96338 -110.06948 34796 ft 498 kts 38°
2026-05-01 13:50 62.01208 -109.96565 34801 ft 502 kts 47°
2026-05-01 13:50 62.05620 -109.84992 34796 ft 503 kts 49°
2026-05-01 13:51 62.09934 -109.73225 34788 ft 503 kts 49°
2026-05-01 13:51 62.14226 -109.61417 34791 ft 503 kts 49°
2026-05-01 13:52 62.18518 -109.49593 34795 ft 503 kts 49°
2026-05-01 13:52 62.22804 -109.37751 34793 ft 503 kts 49°
2026-05-01 13:53 62.27080 -109.25882 34792 ft 503 kts 50°
2026-05-01 13:53 62.33457 -109.08063 34785 ft 504 kts 50°
2026-05-01 13:54 62.37718 -108.96076 34795 ft 504 kts 50°
2026-05-01 13:54 62.41971 -108.84047 34796 ft 504 kts 50°
2026-05-01 13:55 62.46213 -108.71988 34800 ft 504 kts 50°
2026-05-01 13:55 62.49734 -108.61927 34799 ft 504 kts 50°
2026-05-01 13:56 62.53972 -108.49765 34800 ft 507 kts 50°
2026-05-01 13:56 62.58211 -108.37528 34798 ft 508 kts 51°
2026-05-01 13:57 62.62443 -108.25246 34805 ft 508 kts 51°
2026-05-01 13:57 62.66670 -108.12914 34807 ft 508 kts 51°
2026-05-01 13:58 62.70877 -108.00572 34813 ft 508 kts 51°
2026-05-01 13:58 62.75051 -107.88263 34810 ft 508 kts 51°
2026-05-01 13:59 62.79241 -107.75838 34818 ft 508 kts 51°
2026-05-01 13:59 62.83424 -107.63364 34817 ft 508 kts 51°
2026-05-01 14:00 62.87593 -107.50866 34832 ft 508 kts 51°
2026-05-01 14:00 62.91754 -107.38323 34826 ft 508 kts 51°
2026-05-01 14:01 62.95899 -107.25756 34840 ft 507 kts 52°
2026-05-01 14:01 63.00026 -107.13178 34840 ft 507 kts 52°
2026-05-01 14:02 63.04116 -107.00643 34856 ft 507 kts 52°
2026-05-01 14:02 63.08217 -106.88006 34852 ft 507 kts 52°
2026-05-01 14:03 63.12311 -106.75318 34863 ft 507 kts 52°
2026-05-01 14:03 63.16391 -106.62602 34859 ft 506 kts 52°
2026-05-01 14:04 63.20460 -106.49848 34878 ft 506 kts 52°
2026-05-01 14:04 63.24513 -106.37073 34878 ft 506 kts 53°
2026-05-01 14:05 63.28531 -106.24339 34894 ft 506 kts 53°
2026-05-01 14:05 63.32560 -106.11495 34889 ft 506 kts 53°
2026-05-01 14:06 63.36588 -105.98584 34905 ft 506 kts 53°
2026-05-01 14:06 63.40600 -105.85649 34904 ft 506 kts 53°
2026-05-01 14:07 63.44597 -105.72689 34919 ft 507 kts 53°
2026-05-01 14:08 63.50579 -105.53154 34920 ft 507 kts 53°
2026-05-01 14:08 63.54544 -105.40108 34932 ft 506 kts 53°
2026-05-01 14:09 63.58495 -105.27038 34933 ft 506 kts 54°
2026-05-01 14:09 63.62410 -105.14010 34933 ft 506 kts 54°
2026-05-01 14:10 63.66346 -105.00835 34933 ft 506 kts 54°
2026-05-01 14:10 63.70263 -104.87648 34950 ft 506 kts 54°
2026-05-01 14:11 63.74173 -104.74407 34945 ft 506 kts 54°
2026-05-01 14:11 63.80010 -104.54495 34960 ft 506 kts 54°
2026-05-01 14:12 63.83860 -104.41265 34971 ft 506 kts 54°
2026-05-01 14:12 63.87722 -104.27913 34971 ft 506 kts 55°
2026-05-01 14:13 63.90948 -104.16701 34988 ft 506 kts 55°
2026-05-01 14:13 63.95399 -104.01135 34979 ft 504 kts 55°
2026-05-01 14:14 63.99211 -103.87718 34992 ft 504 kts 55°
2026-05-01 14:14 64.03007 -103.74284 34990 ft 504 kts 55°
2026-05-01 14:15 64.06797 -103.60782 35002 ft 504 kts 55°
2026-05-01 14:15 64.10574 -103.47251 35004 ft 504 kts 55°
2026-05-01 14:16 64.14305 -103.33798 35014 ft 503 kts 55°
2026-05-01 14:16 64.18042 -103.20246 35015 ft 502 kts 55°
2026-05-01 14:17 64.21761 -103.06676 35034 ft 503 kts 56°
2026-05-01 14:17 64.25471 -102.93058 35034 ft 503 kts 56°
2026-05-01 14:18 64.29173 -102.79383 35052 ft 503 kts 56°
2026-05-01 14:18 64.32231 -102.68026 35047 ft 501 kts 56°
2026-05-01 14:19 64.36513 -102.52019 35048 ft 501 kts 56°
2026-05-01 14:19 64.40159 -102.38304 35064 ft 501 kts 56°
2026-05-01 14:20 64.45602 -102.17669 35080 ft 501 kts 56°
2026-05-01 14:21 64.49197 -102.03934 35098 ft 500 kts 56°
2026-05-01 14:21 64.52787 -101.90129 35102 ft 499 kts 56°
2026-05-01 14:22 64.58146 -101.69364 35099 ft 499 kts 57°
2026-05-01 14:22 64.61704 -101.55470 35118 ft 499 kts 57°
2026-05-01 14:23 64.65250 -101.41536 35115 ft 499 kts 57°
2026-05-01 14:23 64.68757 -101.27664 35138 ft 498 kts 57°
2026-05-01 14:24 64.72260 -101.13724 35137 ft 497 kts 57°
2026-05-01 14:24 64.75751 -100.99739 35157 ft 497 kts 57°
2026-05-01 14:25 64.79224 -100.85744 35157 ft 497 kts 57°
2026-05-01 14:25 64.82691 -100.71681 35170 ft 497 kts 57°
2026-05-01 14:26 64.87838 -100.50631 35170 ft 496 kts 57°
2026-05-01 14:27 64.91259 -100.36532 35189 ft 495 kts 57°
2026-05-01 14:27 64.94668 -100.22389 35186 ft 495 kts 57°
2026-05-01 14:28 64.99762 -100.01085 35185 ft 497 kts 58°
2026-05-01 14:28 65.03194 -99.87011 35212 ft 497 kts 56°
2026-05-01 14:29 65.06724 -99.72953 35206 ft 496 kts 56°
2026-05-01 14:30 65.13716 -99.44729 35221 ft 496 kts 57°
2026-05-01 14:31 65.18905 -99.23411 35228 ft 496 kts 57°
2026-05-01 14:31 65.22347 -99.09155 35233 ft 496 kts 57°
2026-05-01 14:32 65.25778 -98.94854 35237 ft 496 kts 57°
2026-05-01 14:32 65.29171 -98.80618 35238 ft 496 kts 57°
2026-05-01 14:33 65.32575 -98.66241 35248 ft 496 kts 57°
2026-05-01 14:33 65.35965 -98.51829 35249 ft 496 kts 57°
2026-05-01 14:34 65.39338 -98.37397 35256 ft 497 kts 57°
2026-05-01 14:34 65.42710 -98.22870 35259 ft 497 kts 57°
2026-05-01 14:35 65.46064 -98.08325 35261 ft 497 kts 57°
2026-05-01 14:35 65.49383 -97.93831 35260 ft 497 kts 58°
2026-05-01 14:36 65.52704 -97.79231 35260 ft 497 kts 58°
2026-05-01 14:36 65.56019 -97.64561 35265 ft 497 kts 58°
2026-05-01 14:37 65.59318 -97.49859 35265 ft 497 kts 58°
2026-05-01 14:37 65.62603 -97.35119 35276 ft 498 kts 58°
2026-05-01 14:38 65.65881 -97.20311 35277 ft 498 kts 58°
2026-05-01 14:38 65.69123 -97.05559 35287 ft 498 kts 58°
2026-05-01 14:39 65.72368 -96.90694 35282 ft 498 kts 58°
2026-05-01 14:39 65.75598 -96.75797 35303 ft 498 kts 58°
2026-05-01 14:40 65.78811 -96.60869 35295 ft 497 kts 59°
2026-05-01 14:40 65.82014 -96.45885 35299 ft 498 kts 59°
2026-05-01 14:41 65.85205 -96.30852 35301 ft 498 kts 59°
2026-05-01 14:41 65.88382 -96.15779 35300 ft 499 kts 59°
2026-05-01 14:42 65.91009 -96.03229 35306 ft 499 kts 59°
2026-05-01 14:42 65.94664 -95.85642 35308 ft 498 kts 59°
2026-05-01 14:43 65.97796 -95.70459 35312 ft 498 kts 59°
2026-05-01 14:43 66.00404 -95.57730 35313 ft 498 kts 59°
2026-05-01 14:44 66.03484 -95.42602 35317 ft 498 kts 59°
2026-05-01 14:44 66.08117 -95.19633 35317 ft 498 kts 60°
2026-05-01 14:45 66.12703 -94.96639 35328 ft 498 kts 60°
2026-05-01 14:46 66.15725 -94.81351 35337 ft 498 kts 60°
2026-05-01 14:46 66.20256 -94.58208 35338 ft 499 kts 60°
2026-05-01 14:47 66.23264 -94.42706 35349 ft 499 kts 60°
2026-05-01 14:48 66.27748 -94.19370 35352 ft 498 kts 60°
2026-05-01 14:48 66.32175 -93.96069 35348 ft 499 kts 60°
2026-05-01 14:49 66.38046 -93.64755 35358 ft 499 kts 61°
2026-05-01 14:50 66.43849 -93.33309 35362 ft 498 kts 61°
2026-05-01 14:51 66.48156 -93.09659 35359 ft 498 kts 61°
2026-05-01 14:52 66.52424 -92.85940 35366 ft 498 kts 62°
2026-05-01 14:53 66.56643 -92.62218 35389 ft 498 kts 62°
2026-05-01 14:53 66.59447 -92.46290 35379 ft 498 kts 62°
2026-05-01 14:54 66.62238 -92.30314 35373 ft 498 kts 62°
2026-05-01 14:54 66.65011 -92.14305 35374 ft 498 kts 62°
2026-05-01 14:55 66.67771 -91.98247 35379 ft 498 kts 63°
2026-05-01 14:55 66.70514 -91.82151 35380 ft 499 kts 63°
2026-05-01 14:56 66.73225 -91.66114 35387 ft 499 kts 63°
2026-05-01 14:56 66.75936 -91.49946 35383 ft 499 kts 63°
2026-05-01 14:57 66.78632 -91.33732 35390 ft 499 kts 63°
2026-05-01 14:57 66.82644 -91.09348 35389 ft 499 kts 64°
2026-05-01 14:58 66.85298 -90.93046 35391 ft 499 kts 64°
2026-05-01 14:58 66.87936 -90.76703 35390 ft 500 kts 64°
2026-05-01 14:59 66.90564 -90.60287 35398 ft 501 kts 64°
2026-05-01 14:59 66.93177 -90.43814 35395 ft 502 kts 64°
2026-05-01 15:00 66.97069 -90.19017 35396 ft 502 kts 64°
2026-05-01 15:01 66.99644 -90.02426 35397 ft 502 kts 65°
2026-05-01 15:01 67.02090 -89.85684 35398 ft 503 kts 68°
2026-05-01 15:02 67.04318 -89.68695 35399 ft 503 kts 68°
2026-05-01 15:02 67.06530 -89.51666 35396 ft 503 kts 68°
2026-05-01 15:03 67.08759 -89.34625 35395 ft 503 kts 68°
2026-05-01 15:03 67.10969 -89.17700 35393 ft 503 kts 68°
2026-05-01 15:04 67.13186 -89.00567 35397 ft 503 kts 68°
2026-05-01 15:04 67.15377 -88.83460 35390 ft 504 kts 69°
2026-05-01 15:05 67.17550 -88.66310 35395 ft 504 kts 69°
2026-05-01 15:05 67.19691 -88.49231 35386 ft 504 kts 69°
2026-05-01 15:06 67.21828 -88.32013 35400 ft 504 kts 69°
2026-05-01 15:06 67.23961 -88.14648 35369 ft 505 kts 69°
2026-05-01 15:07 67.26050 -87.97451 35382 ft 505 kts 69°
2026-05-01 15:07 67.28135 -87.80109 35365 ft 505 kts 70°
2026-05-01 15:08 67.30201 -87.62744 35376 ft 505 kts 70°
2026-05-01 15:08 67.32248 -87.45339 35366 ft 505 kts 70°
2026-05-01 15:09 67.34275 -87.27923 35370 ft 505 kts 70°
2026-05-01 15:09 67.36285 -87.10454 35381 ft 505 kts 70°
2026-05-01 15:10 67.38265 -86.93059 35377 ft 505 kts 71°
2026-05-01 15:10 67.41219 -86.66746 35381 ft 505 kts 71°
2026-05-01 15:11 67.44130 -86.40359 35379 ft 505 kts 71°
2026-05-01 15:12 67.46037 -86.22823 35390 ft 505 kts 71°
2026-05-01 15:12 67.48878 -85.96316 35391 ft 506 kts 72°
2026-05-01 15:14 67.53508 -85.52081 35391 ft 506 kts 72°
2026-05-01 15:14 67.56232 -85.25412 35388 ft 506 kts 72°
2026-05-01 15:15 67.59798 -84.89735 35390 ft 506 kts 73°
2026-05-01 15:16 67.63287 -84.53948 35381 ft 506 kts 73°
2026-05-01 15:18 67.67547 -84.08951 35384 ft 508 kts 74°
2026-05-01 15:19 67.70871 -83.72780 35385 ft 508 kts 74°
2026-05-01 15:19 67.73302 -83.45679 35379 ft 508 kts 75°
2026-05-01 15:20 67.75695 -83.18454 35372 ft 508 kts 75°
2026-05-01 15:21 67.77263 -83.00290 35370 ft 508 kts 75°
2026-05-01 15:21 67.78813 -82.82087 35363 ft 508 kts 76°
2026-05-01 15:22 67.81100 -82.54721 35360 ft 508 kts 76°
2026-05-01 15:22 67.82590 -82.36565 35349 ft 508 kts 76°
2026-05-01 15:23 67.84073 -82.18228 35365 ft 509 kts 76°
2026-05-01 15:23 67.85536 -81.99855 35357 ft 509 kts 77°
2026-05-01 15:24 67.86976 -81.81497 35350 ft 509 kts 77°
2026-05-01 15:24 67.88397 -81.63080 35357 ft 509 kts 77°
2026-05-01 15:25 67.89789 -81.44772 35352 ft 509 kts 77°
2026-05-01 15:25 67.91169 -81.26314 35366 ft 510 kts 77°
2026-05-01 15:26 67.92531 -81.07799 35355 ft 510 kts 78°
2026-05-01 15:26 67.93870 -80.89290 35365 ft 510 kts 78°
2026-05-01 15:27 67.95188 -80.70769 35356 ft 509 kts 78°
2026-05-01 15:28 67.97118 -80.43060 35351 ft 509 kts 78°
2026-05-01 15:28 67.98386 -80.24451 35349 ft 510 kts 79°
2026-05-01 15:29 68.00558 -79.96721 35354 ft 509 kts 71°
2026-05-01 15:30 68.04802 -79.64045 35346 ft 508 kts 69°
2026-05-01 15:31 68.11850 -79.10427 35334 ft 509 kts 70°
2026-05-01 15:32 68.16425 -78.74481 35332 ft 509 kts 70°
2026-05-01 15:34 68.23137 -78.20359 35325 ft 511 kts 71°